GW3251 Weather Reports


Display with metric or nautical units.
time (UTC)temp
F
wind
direction
speed
MPH
gust
MPH
rain 1hr
in
rain 24hr
in
rain mn
in
humidity
%
barometer
mb
20260509200541 91 0 0.0 3.0 0.00 0.00 0.00 58 1008.9
20260509200046 90 0 0.0 1.0 0.00 0.00 0.00 64 1009.1
20260509195541 88 0 0.0 4.0 0.00 0.00 0.00 62 1008.9
20260509195040 89 0 0.0 5.0 0.00 0.00 0.00 66 1009.0
20260509194550 89 0 1.0 6.0 0.00 0.00 0.00 67 1009.1
20260509194037 88 0 0.0 6.0 0.00 0.00 0.00 65 1008.9
20260509193540 89 0 0.0 6.0 0.00 0.00 0.00 64 1009.1
20260509193051 88 0 0.0 2.0 0.00 0.00 0.00 66 1009.3
20260509192536 87 0 0.0 5.0 0.00 0.00 0.00 70 1009.5
20260509192041 86 0 0.0 5.0 0.00 0.00 0.00 70 1009.4
20260509191559 88 0 0.0 4.0 0.00 0.00 0.00 66 1009.6
20260509191036 87 0 0.0 4.0 0.00 0.00 0.00 66 1009.8
20260509190541 86 0 0.0 1.0 0.00 0.00 0.00 68 1009.8
20260509190055 88 0 0.0 7.0 0.00 0.00 0.00 66 1009.9
20260509185539 87 0 1.0 7.0 0.00 0.00 0.00 71 1009.8
20260509185038 86 0 0.0 0.0 0.00 0.00 0.00 70 1010.0
20260509184555 87 0 0.0 7.0 0.00 0.00 0.00 72 1010.0
20260509184037 87 0 1.0 7.0 0.00 0.00 0.00 72 1010.0
20260509183537 87 0 0.0 7.0 0.00 0.00 0.00 73 1010.1
20260509183055 87 290 0.0 7.0 0.00 0.00 0.00 72 1010.2
20260509182537 85 0 0.0 0.0 0.00 0.00 0.00 77 1010.3
20260509182036 86 0 0.0 5.0 0.00 0.00 0.00 77 1010.2
20260509181546 84 0 0.0 5.0 0.00 0.00 0.00 76 1010.3
20260509181037 86 0 0.0 5.0 0.00 0.00 0.00 75 1010.5
20260509180537 85 0 0.0 1.0 0.00 0.00 0.00 75 1010.6
20260509180049 85 0 0.0 4.0 0.00 0.00 0.00 75 1010.6
20260509175536 85 0 0.0 4.0 0.00 0.00 0.00 73 1010.7
20260509175036 85 0 0.0 1.0 0.00 0.00 0.00 76 1010.7
20260509174603 83 0 0.0 0.0 0.00 0.00 0.00 78 1010.7
20260509174036 83 0 0.0 0.0 0.00 0.00 0.00 79 1010.8
20260509173535 82 0 0.0 1.0 0.00 0.00 0.00 82 1010.9
20260509173052 80 0 0.0 1.0 0.00 0.00 0.00 85 1011.1
20260509172539 80 0 0.0 0.0 0.00 0.00 0.00 84 1011.0
20260509172036 80 0 0.0 1.0 0.00 0.00 0.00 85 1011.2
20260509171547 80 0 0.0 1.0 0.00 0.00 0.00 84 1011.3
20260509171036 80 0 0.0 0.0 0.00 0.00 0.00 85 1011.2
20260509170536 80 0 0.0 0.0 0.00 0.00 0.00 85 1011.1
20260509170046 79 0 0.0 0.0 0.00 0.00 0.00 87 1011.1
20260509165536 78 0 0.0 0.0 0.00 0.00 0.00 86 1011.0
20260509165040 78 0 0.0 0.0 0.00 0.00 0.00 87 1011.1
20260509164545 78 0 0.0 0.0 0.00 0.00 0.00 87 1011.2
20260509164037 78 0 0.0 0.0 0.00 0.00 0.00 87 1011.1
20260509163536 78 0 0.0 0.0 0.00 0.00 0.00 87 1011.1
20260509163047 78 0 0.0 0.0 0.00 0.00 0.00 88 1011.1
20260509162536 78 0 0.0 0.0 0.00 0.00 0.00 88 1011.2
20260509162036 78 0 0.0 0.0 0.00 0.00 0.00 88 1011.2
20260509161549 78 0 0.0 0.0 0.00 0.00 0.00 89 1011.2
20260509161038 78 0 0.0 0.0 0.00 0.00 0.00 88 1011.3
20260509160539 78 0 0.0 0.0 0.00 0.00 0.00 88 1011.3
20260509160050 77 0 0.0 0.0 0.00 0.00 0.00 89 1011.1
20260509155537 77 0 0.0 0.0 0.00 0.00 0.00 88 1011.1
20260509155036 77 0 0.0 0.0 0.00 0.00 0.00 88 1011.2
20260509154553 77 0 0.0 0.0 0.00 0.00 0.00 89 1011.2
20260509154036 76 0 0.0 0.0 0.00 0.00 0.00 90 1011.3
20260509153536 76 0 0.0 0.0 0.00 0.00 0.00 90 1011.3
20260509153055 76 0 0.0 0.0 0.00 0.00 0.00 90 1011.4
20260509152539 76 0 0.0 0.0 0.00 0.00 0.00 90 1011.3
20260509152037 76 0 0.0 0.0 0.00 0.00 0.00 90 1011.3
20260509151548 76 0 0.0 0.0 0.00 0.00 0.00 90 1011.3
20260509151037 76 0 0.0 0.0 0.00 0.00 0.00 89 1011.2
20260509150540 77 0 0.0 10.0 0.00 0.00 0.00 89 1011.1
20260509150051 77 0 0.0 10.0 0.00 0.00 0.00 89 1010.8
20260509145536 77 234 1.0 10.0 0.00 0.00 0.00 89 1010.3
20260509145037 77 0 1.0 10.0 0.00 0.00 0.00 90 1010.2
20260509144550 77 0 0.0 10.0 0.00 0.00 0.00 90 1010.0
20260509144037 77 235 1.0 10.0 0.00 0.00 0.00 90 1009.9
20260509143537 77 0 1.0 10.0 0.00 0.00 0.00 89 1010.0
20260509143047 77 0 1.0 9.0 0.00 0.00 0.00 90 1010.1
20260509142536 77 0 0.0 9.0 0.00 0.00 0.00 92 1010.0
20260509142036 76 0 0.0 8.0 0.00 0.00 0.00 93 1009.9
20260509141545 75 0 0.0 8.0 0.00 0.00 0.00 93 1010.1
20260509141038 75 0 0.0 0.0 0.00 0.00 0.00 93 1010.2
20260509140536 75 0 0.0 7.0 0.00 0.00 0.00 93 1010.2
20260509140055 75 0 0.0 7.0 0.00 0.00 0.00 94 1010.3
20260509135539 75 209 0.0 4.0 0.00 0.00 0.00 94 1010.5
20260509135037 74 0 0.0 6.0 0.00 0.00 0.00 94 1010.4
20260509134548 74 0 0.0 6.0 0.00 0.00 0.00 94 1010.3
20260509134036 74 0 0.0 5.0 0.00 0.00 0.00 94 1010.3
20260509133537 74 0 0.0 0.0 0.00 0.00 0.00 94 1010.4
20260509133050 74 0 0.0 3.0 0.00 0.00 0.00 94 1010.7
20260509132536 73 0 0.0 3.0 0.00 0.00 0.00 94 1010.4
20260509132036 73 0 0.0 0.0 0.00 0.00 0.00 94 1010.6
20260509131549 73 0 0.0 0.0 0.00 0.00 0.00 94 1010.4
20260509131036 73 0 0.0 0.0 0.00 0.00 0.00 94 1010.3
20260509130536 73 0 0.0 1.0 0.00 0.00 0.00 94 1010.2
20260509130100 73 0 0.0 2.0 0.00 0.00 0.00 94 1010.3
20260509125536 73 0 0.0 3.0 0.00 0.00 0.00 94 1010.2
20260509125036 73 0 0.0 3.0 0.00 0.00 0.00 94 1010.1
20260509124554 73 0 0.0 0.0 0.00 0.00 0.00 94 1010.0
20260509124038 73 0 0.0 0.0 0.00 0.00 0.00 94 1010.3
20260509123541 73 0 0.0 0.0 0.00 0.00 0.00 94 1010.4
20260509123044 73 0 0.0 0.0 0.00 0.00 0.00 94 1010.5
20260509122538 73 0 0.0 0.0 0.00 0.00 0.00 94 1010.7
20260509122038 73 0 0.0 0.0 0.00 0.00 0.00 94 1010.7
20260509121557 73 0 0.0 0.0 0.00 0.00 0.00 94 1010.6
20260509121039 73 0 0.0 0.0 0.00 0.00 0.00 94 1010.8
20260509120542 73 0 0.0 0.0 0.00 0.00 0.00 94 1010.7
20260509120051 73 0 0.0 0.0 0.00 0.00 0.00 94 1010.3
20260509115537 73 0 0.0 0.0 0.00 0.00 0.00 94 1010.1
20260509115037 73 0 0.0 0.0 0.00 0.00 0.00 94 1010.1
20260509114557 73 0 0.0 0.0 0.00 0.00 0.00 94 1010.4
20260509114038 73 0 0.0 3.0 0.00 0.00 0.00 94 1010.4
20260509113538 73 0 0.0 3.0 0.00 0.00 0.00 94 1010.6
20260509113053 73 0 0.0 3.0 0.00 0.00 0.00 94 1010.4
20260509112538 73 0 0.0 1.0 0.00 0.00 0.00 93 1010.5
20260509112038 73 0 0.0 1.0 0.00 0.00 0.00 94 1010.3
20260509111548 73 0 0.0 0.0 0.00 0.00 0.00 94 1010.3
20260509111038 73 0 0.0 0.0 0.00 0.00 0.00 94 1010.3
20260509110537 73 0 0.0 0.0 0.00 0.00 0.00 94 1010.4
20260509110050 73 0 0.0 0.0 0.00 0.00 0.00 93 1010.4
20260509105542 73 0 0.0 0.0 0.00 0.00 0.00 93 1010.4
20260509105038 73 0 0.0 0.0 0.00 0.00 0.00 93 1010.6
20260509104551 73 0 0.0 0.0 0.00 0.00 0.00 93 1010.5
20260509104037 73 0 0.0 0.0 0.00 0.00 0.00 93 1010.7
20260509103537 73 0 0.0 0.0 0.00 0.00 0.00 93 1010.8
20260509103059 73 0 0.0 0.0 0.00 0.00 0.00 93 1010.6
20260509102538 73 0 0.0 0.0 0.00 0.00 0.00 93 1010.8
20260509102039 73 0 0.0 0.0 0.00 0.00 0.00 93 1010.8
20260509101559 73 0 0.0 0.0 0.00 0.00 0.00 93 1010.8
20260509101039 73 0 0.0 0.0 0.00 0.00 0.00 93 1010.6
20260509100538 73 0 0.0 0.0 0.00 0.00 0.00 93 1010.4
20260509100047 73 0 0.0 0.0 0.00 0.00 0.00 93 1010.3
20260509095539 73 0 0.0 0.0 0.00 0.00 0.00 93 1010.0
20260509095038 73 0 0.0 0.0 0.00 0.00 0.00 93 1009.9
20260509094559 72 0 0.0 0.0 0.00 0.00 0.00 93 1009.9
20260509094039 73 0 0.0 0.0 0.00 0.00 0.00 93 1010.0
20260509093537 73 0 0.0 0.0 0.00 0.00 0.00 93 1010.0
20260509093050 73 0 0.0 0.0 0.00 0.00 0.00 93 1010.1
20260509092536 73 0 0.0 0.0 0.00 0.00 0.00 93 1010.1
20260509092036 73 0 0.0 0.0 0.00 0.00 0.00 93 1010.0
20260509091545 72 0 0.0 0.0 0.00 0.00 0.00 93 1009.9
20260509091039 72 0 0.0 0.0 0.00 0.00 0.00 93 1009.9
20260509090540 72 0 0.0 0.0 0.00 0.00 0.00 93 1010.0
20260509090058 73 0 0.0 0.0 0.00 0.00 0.00 93 1010.2
20260509085537 73 0 0.0 0.0 0.00 0.00 0.00 93 1010.2
20260509085036 73 0 0.0 0.0 0.00 0.00 0.00 93 1010.2
20260509084548 73 0 0.0 0.0 0.00 0.00 0.00 93 1010.4
20260509084035 73 0 0.0 0.0 0.00 0.00 0.00 93 1010.7
20260509083536 73 0 0.0 0.0 0.00 0.00 0.00 93 1010.7
20260509083056 73 0 0.0 0.0 0.00 0.00 0.00 93 1010.6
20260509082536 73 0 0.0 0.0 0.00 0.00 0.00 93 1010.6
20260509082037 73 0 0.0 0.0 0.00 0.00 0.00 93 1010.4
20260509081548 73 0 0.0 0.0 0.00 0.00 0.00 93 1010.3
20260509081037 73 0 0.0 0.0 0.00 0.00 0.00 93 1010.3
20260509080536 73 0 0.0 0.0 0.00 0.00 0.00 93 1010.4
20260509080053 73 0 0.0 0.0 0.00 0.00 0.00 93 1010.2
20260509075536 73 0 0.0 0.0 0.00 0.00 0.00 93 1010.3
20260509075036 73 0 0.0 0.0 0.00 0.00 0.00 93 1010.4
20260509074551 73 0 0.0 0.0 0.00 0.00 0.00 93 1010.3
20260509074036 73 0 0.0 0.0 0.00 0.00 0.00 93 1010.5
20260509073539 73 0 0.0 0.0 0.00 0.00 0.00 93 1010.6
20260509073050 73 0 0.0 0.0 0.00 0.00 0.00 93 1010.9
20260509072537 73 0 0.0 0.0 0.00 0.00 0.00 93 1010.9
20260509072036 73 0 0.0 0.0 0.00 0.00 0.00 93 1010.7
20260509071556 73 0 0.0 0.0 0.00 0.00 0.00 93 1010.8
20260509071037 73 0 0.0 0.0 0.00 0.00 0.00 92 1010.6
20260509070537 73 0 0.0 0.0 0.00 0.00 0.00 92 1010.7
20260509070046 73 0 0.0 0.0 0.00 0.00 0.00 92 1010.7
20260509065536 73 0 0.0 0.0 0.00 0.00 0.00 92 1010.6
20260509065036 73 0 0.0 0.0 0.00 0.00 0.00 92 1010.6
20260509064548 73 0 0.0 3.0 0.00 0.00 0.00 92 1010.5
20260509064041 73 0 0.0 3.0 0.00 0.00 0.00 92 1010.3
20260509063538 73 0 0.0 6.0 0.00 0.00 0.00 92 1010.4
20260509063049 73 0 0.0 8.0 0.00 0.00 0.00 92 1010.2
20260509062539 73 0 0.0 8.0 0.00 0.00 0.00 92 1010.2
20260509062038 73 0 0.0 5.0 0.00 0.00 0.00 92 1010.4
20260509061552 73 0 0.0 1.0 0.00 0.00 0.00 92 1010.4
20260509061038 73 0 0.0 6.0 0.00 0.00 0.00 92 1010.6
20260509060538 73 0 0.0 6.0 0.00 0.00 0.00 92 1010.6
20260509060106 73 0 0.0 1.0 0.00 0.00 0.00 92 1010.5
20260509055538 73 0 0.0 8.0 0.00 0.00 0.00 92 1010.7
20260509055037 73 0 0.0 8.0 0.00 0.00 0.00 92 1010.6
20260509054548 73 0 0.0 8.0 0.00 0.00 0.00 92 1010.5
20260509054045 73 0 0.0 8.0 0.00 0.00 0.00 92 1010.3
20260509053539 73 165 0.0 7.0 0.00 0.00 0.00 92 1010.3
20260509053110 73 0 0.0 7.0 0.00 0.00 0.00 92 1010.2
20260509052542 73 0 0.0 0.0 0.00 0.00 0.00 92 1010.2
20260509052040 73 0 0.0 5.0 0.00 0.00 0.00 92 1010.2
20260509051551 73 0 0.0 6.0 0.00 0.00 0.00 92 1010.4
20260509051038 73 0 0.0 6.0 0.00 0.00 0.00 92 1010.1
20260509050538 73 0 0.0 8.0 0.00 0.00 0.00 92 1010.2
20260509050057 73 143 0.0 8.0 0.00 0.00 0.00 91 1010.2
20260509045538 73 146 1.0 9.0 0.00 0.00 0.00 91 1010.2
20260509045038 73 0 0.0 9.0 0.00 0.00 0.00 91 1010.2
20260509044616 73 0 1.0 9.0 0.00 0.00 0.00 91 1010.2
20260509044037 73 160 1.0 8.0 0.00 0.00 0.00 91 1010.2
20260509043538 73 0 0.0 9.0 0.00 0.00 0.00 91 1010.2
20260509043108 73 0 2.0 9.0 0.00 0.00 0.00 91 1010.1
20260509042537 73 0 0.0 8.0 0.00 0.00 0.00 91 1010.1
20260509042039 73 0 0.0 9.0 0.00 0.00 0.00 91 1010.0
20260509041551 73 0 0.0 9.0 0.00 0.00 0.00 91 1010.0
20260509041038 73 0 0.0 9.0 0.00 0.00 0.00 91 1009.9
20260509040538 73 0 0.0 10.0 0.00 0.00 0.00 91 1009.9
20260509040047 73 0 0.0 10.0 0.00 0.00 0.00 90 1009.8
20260509035538 73 0 2.0 11.0 0.00 0.00 0.00 90 1009.9
20260509035038 74 0 3.0 11.0 0.00 0.00 0.00 90 1010.2
20260509034550 74 0 1.0 11.0 0.00 0.00 0.00 90 1010.1
20260509034038 74 0 0.0 9.0 0.00 0.00 0.00 90 1010.1
20260509033540 74 176 0.0 6.0 0.00 0.00 0.00 90 1010.1
20260509033046 74 0 0.0 8.0 0.00 0.00 0.00 90 1010.1
20260509032537 74 157 1.0 9.0 0.00 0.00 0.00 90 1010.1
20260509032037 74 169 0.0 9.0 0.00 0.00 0.00 90 1010.0
20260509031559 74 0 0.0 5.0 0.00 0.00 0.00 90 1010.0
20260509031037 74 0 0.0 4.0 0.00 0.00 0.00 90 1009.8
20260509030537 74 0 0.0 4.0 0.00 0.00 0.00 90 1009.7
20260509030110 74 0 0.0 0.0 0.00 0.00 0.00 90 1009.7
20260509025536 74 0 0.0 3.0 0.00 0.00 0.00 90 1009.8
20260509025040 74 0 0.0 3.0 0.00 0.00 0.00 90 1009.7
20260509024550 74 0 0.0 1.0 0.00 0.00 0.00 90 1009.7
20260509024037 74 0 0.0 0.0 0.00 0.00 0.00 90 1009.6
20260509023538 74 0 0.0 0.0 0.00 0.00 0.00 90 1009.7
20260509023056 74 0 0.0 0.0 0.00 0.00 0.00 90 1009.6
20260509022536 74 0 0.0 0.0 0.00 0.00 0.00 90 1009.5
20260509022037 74 0 0.0 0.0 0.00 0.00 0.00 90 1009.5
20260509021550 74 0 0.0 0.0 0.00 0.00 0.00 90 1009.6
20260509021040 74 0 0.0 0.0 0.00 0.00 0.00 90 1009.6
20260509020537 74 0 0.0 0.0 0.00 0.00 0.00 90 1009.5
20260509020055 73 0 0.0 0.0 0.00 0.00 0.00 90 1009.5
20260509015537 74 0 0.0 0.0 0.00 0.00 0.00 90 1009.5
20260509015037 74 0 0.0 0.0 0.00 0.00 0.00 90 1009.3
20260509014555 74 0 0.0 0.0 0.00 0.00 0.00 90 1009.4
20260509014037 74 0 0.0 0.0 0.00 0.00 0.00 90 1009.2
20260509013536 74 0 0.0 0.0 0.00 0.00 0.00 89 1009.4
20260509013059 74 0 0.0 0.0 0.00 0.00 0.00 89 1009.5
20260509012537 74 0 0.0 0.0 0.00 0.00 0.00 89 1009.4
20260509012036 74 0 0.0 0.0 0.00 0.00 0.00 89 1009.3
20260509011554 74 0 0.0 0.0 0.00 0.00 0.00 88 1009.2
20260509011036 75 0 0.0 0.0 0.00 0.00 0.00 88 1009.1
20260509010537 75 0 0.0 0.0 0.00 0.00 0.00 88 1009.1
20260509010046 75 0 0.0 0.0 0.00 0.00 0.00 87 1009.1
20260509005537 75 0 0.0 9.0 0.00 0.00 0.00 87 1008.9
20260509005037 76 0 0.0 9.0 0.00 0.00 0.00 87 1008.9
20260509004608 76 0 0.0 1.0 0.00 0.00 0.00 87 1008.9
20260509004037 76 0 0.0 3.0 0.00 0.00 0.00 87 1008.8
20260509003537 76 0 0.0 3.0 0.00 0.00 0.00 87 1009.0
20260509003053 76 0 0.0 1.0 0.00 0.00 0.00 87 1008.9
20260509002537 76 0 0.0 2.0 0.00 0.00 0.00 86 1009.0
20260509002036 76 0 0.0 9.0 0.00 0.00 0.00 86 1009.0
20260509001545 76 0 0.0 9.0 0.00 0.00 0.00 86 1009.0
20260509001038 77 122 0.0 7.0 0.00 0.00 0.00 86 1009.1
20260509000537 77 0 0.0 6.0 0.00 0.00 0.00 85 1009.0
20260509000051 77 0 0.0 6.0 0.00 0.00 0.00 86 1009.0
20260508235536 77 0 0.0 6.0 0.00 0.00 0.00 85 1009.0
20260508235037 77 0 0.0 8.0 0.00 0.00 0.00 84 1008.9
20260508234548 78 0 0.0 8.0 0.00 0.00 0.00 84 1008.9
20260508234037 78 0 0.0 9.0 0.00 0.00 0.00 84 1008.9
20260508233537 78 0 2.0 9.0 0.00 0.00 0.00 84 1008.8
20260508233048 78 0 0.0 8.0 0.00 0.00 0.00 84 1008.7
20260508232539 78 0 0.0 8.0 0.00 0.00 0.00 83 1008.9
20260508232036 79 0 0.0 5.0 0.00 0.00 0.00 83 1009.0
20260508231547 79 0 0.0 7.0 0.00 0.00 0.00 82 1008.8
20260508231036 79 0 1.0 9.0 0.00 0.00 0.00 83 1008.9
20260508230536 79 0 1.0 9.0 0.00 0.00 0.00 84 1008.8
20260508230045 78 0 0.0 0.0 0.00 0.00 0.00 85 1008.9
20260508225536 77 0 0.0 1.0 0.00 0.00 0.00 86 1009.3
20260508225039 77 0 0.0 1.0 0.00 0.00 0.00 85 1009.5
20260508224631 77 0 0.0 6.0 0.00 0.00 0.00 84 1009.4
20260508224036 78 0 0.0 6.0 0.00 0.00 0.00 84 1009.3
20260508223536 78 150 0.0 5.0 0.00 0.00 0.00 84 1009.3
20260508223054 78 0 0.0 5.0 0.00 0.00 0.00 83 1009.4
20260508222536 78 161 0.0 1.0 0.00 0.00 0.00 82 1009.4
20260508222037 79 0 0.0 6.0 0.00 0.00 0.00 82 1009.3
20260508221548 79 0 0.0 6.0 0.00 0.00 0.00 80 1009.4
20260508221037 80 0 0.0 1.0 0.00 0.00 0.00 82 1009.2
20260508220536 79 0 0.0 0.0 0.00 0.00 0.00 82 1009.2
20260508220052 79 0 0.0 1.0 0.00 0.00 0.00 81 1009.3
20260508215536 79 0 0.0 1.0 0.00 0.00 0.00 81 1009.3
20260508215036 79 0 0.0 3.0 0.00 0.00 0.00 80 1009.5
20260508214545 80 0 0.0 3.0 0.00 0.00 0.00 80 1009.5
20260508214037 80 0 0.0 3.0 0.00 0.00 0.00 80 1009.6
20260508213536 80 0 0.0 0.0 0.00 0.00 0.00 81 1009.5
20260508213049 79 0 0.0 5.0 0.00 0.00 0.00 81 1009.6
20260508212537 79 0 0.0 6.0 0.00 0.00 0.00 80 1009.6
20260508212038 79 0 0.0 6.0 0.00 0.00 0.00 78 1009.5
20260508211551 80 146 0.0 5.0 0.00 0.00 0.00 78 1009.6
20260508211037 80 0 0.0 0.0 0.00 0.00 0.00 78 1009.7
20260508210537 81 0 0.0 0.0 0.00 0.00 0.00 78 1009.9
20260508210049 80 0 0.0 0.0 0.00 0.00 0.00 77 1009.8
20260508205541 80 0 0.0 0.0 0.00 0.00 0.00 80 1009.9
20260508205038 79 0 0.0 4.0 0.00 0.00 0.00 80 1010.1
20260508204548 79 0 0.0 4.0 0.00 0.00 0.00 81 1010.1
20260508204036 79 0 0.0 0.0 0.00 0.00 0.00 80 1010.1
20260508203536 79 0 0.0 2.0 0.00 0.00 0.00 78 1010.2
20260508203046 80 0 0.0 2.0 0.00 0.00 0.00 77 1010.2
20260508202537 80 0 0.0 2.0 0.00 0.00 0.00 80 1010.2
20260508202037 79 0 0.0 2.0 0.00 0.00 0.00 79 1010.2
20260508201550 79 0 0.0 1.0 0.00 0.00 0.00 80 1010.2
20260508201037 79 0 0.0 1.0 0.00 0.00 0.00 78 1010.3